| time (UTC) | temp F | wind direction | speed knots | gust knots | rain 1hr in | rain 24hr in | rain mn in | humidity % | barometer mb |
| 20260506135403 | 46 | 0 | 0.0 | 0.0 | 0.00 | 0.00 | 0.00 | 58 | |
| 20260506134503 | 46 | 241 | 0.0 | 0.9 | 0.00 | 0.00 | 0.00 | 57 | |
| 20260506133603 | 46 | 0 | 0.0 | 0.0 | 0.00 | 0.00 | 0.00 | 57 | |
| 20260506132703 | 46 | 239 | 0.9 | 3.5 | 0.00 | 0.00 | 0.00 | 57 | |
| 20260506132014 | 46 | 178 | 0.0 | 0.9 | 0.00 | 0.00 | 0.00 | 54 | |
| 20260506130903 | 46 | 178 | 0.0 | 0.9 | 0.00 | 0.00 | 0.00 | 54 | |
| 20260506130214 | 46 | 0 | 0.0 | 0.0 | 0.00 | 0.00 | 0.00 | 53 | |
| 20260506125403 | 46 | 178 | 0.0 | 0.9 | 0.00 | 0.00 | 0.00 | 52 | |
| 20260506124503 | 46 | 178 | 0.0 | 1.7 | 0.00 | 0.00 | 0.00 | 51 | |
| 20260506123603 | 46 | 178 | 0.0 | 1.7 | 0.00 | 0.00 | 0.00 | 51 | |
| 20260506122703 | 47 | 178 | 1.7 | 2.6 | 0.00 | 0.00 | 0.00 | 50 | |
| 20260506122013 | 47 | 184 | 1.7 | 3.5 | 0.00 | 0.00 | 0.00 | 50 | |
| 20260506120903 | 47 | 235 | 1.7 | 3.5 | 0.00 | 0.00 | 0.00 | 50 | |
| 20260506120003 | 47 | 298 | 0.0 | 2.6 | 0.00 | 0.00 | 0.00 | 51 | |
| 20260506115614 | 47 | 299 | 0.0 | 0.9 | 0.00 | 0.00 | 0.00 | 52 | |
| 20260506114503 | 48 | 0 | 0.0 | 0.0 | 0.00 | 0.00 | 0.00 | 51 | |
| 20260506113603 | 48 | 299 | 0.9 | 3.5 | 0.00 | 0.00 | 0.00 | 52 | |
| 20260506112703 | 49 | 246 | 0.9 | 4.3 | 0.00 | 0.00 | 0.00 | 52 | |
| 20260506112013 | 48 | 169 | 0.9 | 2.6 | 0.00 | 0.00 | 0.00 | 47 | |
| 20260506110903 | 48 | 169 | 0.0 | 2.6 | 0.00 | 0.00 | 0.00 | 49 | |
| 20260506110003 | 48 | 169 | 0.9 | 1.7 | 0.00 | 0.00 | 0.00 | 49 | |
| 20260506105403 | 48 | 169 | 0.9 | 1.7 | 0.00 | 0.00 | 0.00 | 49 | |
| 20260506104503 | 48 | 169 | 0.9 | 2.6 | 0.00 | 0.00 | 0.00 | 48 | |
| 20260506103603 | 48 | 141 | 1.7 | 5.2 | 0.00 | 0.00 | 0.00 | 48 | |
| 20260506102703 | 47 | 137 | 1.7 | 5.2 | 0.00 | 0.00 | 0.00 | 48 | |
| 20260506101803 | 46 | 145 | 1.7 | 3.5 | 0.00 | 0.00 | 0.00 | 49 | |
| 20260506100903 | 46 | 138 | 1.7 | 3.5 | 0.00 | 0.00 | 0.00 | 48 | |
| 20260506100004 | 46 | 167 | 1.7 | 4.3 | 0.00 | 0.00 | 0.00 | 48 | |
| 20260506095403 | 45 | 218 | 0.9 | 3.5 | 0.00 | 0.00 | 0.00 | 49 | |
| 20260506094714 | 45 | 219 | 0.9 | 2.6 | 0.00 | 0.00 | 0.00 | 49 | |
| 20260506093603 | 46 | 219 | 0.9 | 3.5 | 0.00 | 0.00 | 0.00 | 48 | |
| 20260506092703 | 47 | 218 | 0.0 | 1.7 | 0.00 | 0.00 | 0.00 | 46 | |
| 20260506091803 | 48 | 218 | 0.9 | 2.6 | 0.00 | 0.00 | 0.00 | 45 | |
| 20260506090903 | 48 | 208 | 0.9 | 4.3 | 0.00 | 0.00 | 0.00 | 45 | |
| 20260506090003 | 49 | 156 | 1.7 | 5.2 | 0.00 | 0.00 | 0.00 | 44 | |
| 20260506085612 | 48 | 207 | 0.9 | 3.5 | 0.00 | 0.00 | 0.00 | 45 | |
| 20260506084714 | 49 | 209 | 0.0 | 0.9 | 0.00 | 0.00 | 0.00 | 44 | |
| 20260506083603 | 50 | 0 | 0.0 | 0.0 | 0.00 | 0.00 | 0.00 | 43 | |
| 20260506082912 | 50 | 209 | 0.0 | 1.7 | 0.00 | 0.00 | 0.00 | 44 | |
| 20260506081803 | 51 | 209 | 0.9 | 3.5 | 0.00 | 0.00 | 0.00 | 41 | |
| 20260506081113 | 52 | 210 | 0.9 | 3.5 | 0.00 | 0.00 | 0.00 | 41 | |
| 20260506080213 | 52 | 207 | 1.7 | 3.5 | 0.00 | 0.00 | 0.00 | 41 | |
| 20260506072703 | 52 | 205 | 3.5 | 10.4 | 0.00 | 0.00 | 0.00 | 39 | |
| 20260506071803 | 52 | 188 | 2.6 | 6.1 | 0.00 | 0.00 | 0.00 | 40 | |
| 20260506070904 | 52 | 191 | 2.6 | 4.3 | 0.00 | 0.00 | 0.00 | 40 | |
| 20260506061803 | 54 | 205 | 1.7 | 4.3 | 0.00 | 0.00 | 0.00 | 41 | |
| 20260506060903 | 54 | 208 | 0.0 | 2.6 | 0.00 | 0.00 | 0.00 | 42 | |
| 20260506050903 | 54 | 208 | 0.9 | 2.6 | 0.00 | 0.00 | 0.00 | 41 | |
| 20260506044503 | 54 | 234 | 0.9 | 2.6 | 0.00 | 0.00 | 0.00 | 43 | |
| 20260506043603 | 54 | 252 | 0.9 | 2.6 | 0.00 | 0.00 | 0.00 | 43 | |
| 20260506042703 | 55 | 252 | 0.0 | 1.7 | 0.00 | 0.00 | 0.00 | 42 | |
| 20260506041803 | 55 | 246 | 2.6 | 5.2 | 0.00 | 0.00 | 0.00 | 42 | |
| 20260506040903 | 55 | 251 | 4.3 | 7.8 | 0.00 | 0.00 | 0.00 | 42 | |
| 20260506040004 | 55 | 249 | 3.5 | 7.8 | 0.00 | 0.00 | 0.00 | 41 | |
| 20260506035403 | 55 | 251 | 4.3 | 7.8 | 0.00 | 0.00 | 0.00 | 41 | |
| 20260506034503 | 55 | 259 | 5.2 | 9.6 | 0.00 | 0.00 | 0.00 | 40 | |
| 20260506033813 | 55 | 255 | 2.6 | 7.8 | 0.00 | 0.00 | 0.00 | 41 | |
| 20260506032703 | 55 | 245 | 2.6 | 6.1 | 0.00 | 0.00 | 0.00 | 40 | |
| 20260506032014 | 55 | 244 | 2.6 | 6.1 | 0.00 | 0.00 | 0.00 | 40 | |
| 20260506030903 | 56 | 263 | 3.5 | 6.1 | 0.00 | 0.00 | 0.00 | 39 | |
| 20260506030003 | 56 | 268 | 5.2 | 9.6 | 0.00 | 0.00 | 0.00 | 39 | |
| 20260506025614 | 56 | 274 | 6.1 | 9.6 | 0.00 | 0.00 | 0.00 | 39 | |
| 20260506024503 | 57 | 278 | 7.8 | 13.9 | 0.00 | 0.00 | 0.00 | 38 | |
| 20260506023813 | 57 | 276 | 7.0 | 10.4 | 0.00 | 0.00 | 0.00 | 38 | |
| 20260506022703 | 57 | 279 | 8.7 | 12.2 | 0.00 | 0.00 | 0.00 | 37 | |
| 20260506022014 | 57 | 285 | 8.7 | 12.2 | 0.00 | 0.00 | 0.00 | 38 | |
| 20260506020903 | 58 | 284 | 11.3 | 16.5 | 0.00 | 0.00 | 0.00 | 37 | |
| 20260506020004 | 59 | 276 | 7.8 | 13.9 | 0.00 | 0.00 | 0.00 | 35 | |
| 20260506015614 | 59 | 267 | 7.8 | 12.2 | 0.00 | 0.00 | 0.00 | 35 | |
| 20260506014713 | 60 | 270 | 8.7 | 13.9 | 0.00 | 0.00 | 0.00 | 35 | |
| 20260506013603 | 61 | 255 | 4.3 | 11.3 | 0.00 | 0.00 | 0.00 | 34 | |
| 20260506012914 | 61 | 264 | 6.1 | 11.3 | 0.00 | 0.00 | 0.00 | 34 | |
| 20260506011803 | 61 | 220 | 4.3 | 8.7 | 0.00 | 0.00 | 0.00 | 33 | |
| 20260506010903 | 61 | 201 | 5.2 | 11.3 | 0.00 | 0.00 | 0.00 | 32 | |
| 20260506010003 | 61 | 203 | 6.1 | 12.2 | 0.00 | 0.00 | 0.00 | 33 | |
| 20260506005403 | 62 | 196 | 6.1 | 12.2 | 0.00 | 0.00 | 0.00 | 32 | |
| 20260506004503 | 61 | 198 | 5.2 | 9.6 | 0.00 | 0.00 | 0.00 | 33 | |
| 20260506003814 | 60 | 194 | 5.2 | 9.6 | 0.00 | 0.00 | 0.00 | 33 | |
| 20260506002703 | 60 | 202 | 5.2 | 10.4 | 0.00 | 0.00 | 0.00 | 33 | |
| 20260506001803 | 61 | 203 | 5.2 | 10.4 | 0.00 | 0.00 | 0.00 | 32 | |
| 20260506000903 | 62 | 217 | 3.5 | 6.1 | 0.00 | 0.00 | 0.00 | 31 | |
| 20260506000214 | 63 | 208 | 4.3 | 8.7 | 0.00 | 0.00 | 0.00 | 28 | |
| 20260505235403 | 62 | 203 | 5.2 | 10.4 | 0.00 | 0.00 | 0.00 | 31 | |
| 20260505234503 | 62 | 195 | 5.2 | 9.6 | 0.00 | 0.00 | 0.00 | 31 | |
| 20260505233603 | 63 | 201 | 5.2 | 11.3 | 0.00 | 0.00 | 0.00 | 30 | |
| 20260505232703 | 63 | 209 | 5.2 | 11.3 | 0.00 | 0.00 | 0.00 | 30 | |
| 20260505232012 | 63 | 206 | 5.2 | 11.3 | 0.00 | 0.00 | 0.00 | 29 | |
| 20260505231114 | 63 | 199 | 7.0 | 13.0 | 0.00 | 0.00 | 0.00 | 30 | |
| 20260505230004 | 64 | 225 | 5.2 | 10.4 | 0.00 | 0.00 | 0.00 | 30 | |
| 20260505225403 | 64 | 246 | 3.5 | 10.4 | 0.00 | 0.00 | 0.00 | 31 | |
| 20260505224503 | 64 | 253 | 1.7 | 4.3 | 0.00 | 0.00 | 0.00 | 29 | |
| 20260505223603 | 63 | 299 | 3.5 | 7.8 | 0.00 | 0.00 | 0.00 | 29 | |
| 20260505222703 | 66 | 284 | 4.3 | 9.6 | 0.00 | 0.00 | 0.00 | 29 | |
| 20260505221803 | 66 | 231 | 5.2 | 13.0 | 0.00 | 0.00 | 0.00 | 28 | |
| 20260505221113 | 66 | 234 | 5.2 | 17.4 | 0.00 | 0.00 | 0.00 | 27 | |
| 20260505220213 | 64 | 247 | 5.2 | 10.4 | 0.00 | 0.00 | 0.00 | 30 | |
| 20260505215403 | 65 | 257 | 3.5 | 11.3 | 0.00 | 0.00 | 0.00 | 29 | |
| 20260505214503 | 65 | 259 | 5.2 | 11.3 | 0.00 | 0.00 | 0.00 | 28 | |
| 20260505213603 | 65 | 268 | 5.2 | 10.4 | 0.00 | 0.00 | 0.00 | 29 | |
| 20260505212703 | 65 | 280 | 4.3 | 11.3 | 0.00 | 0.00 | 0.00 | 30 | |
| 20260505211803 | 65 | 284 | 4.3 | 9.6 | 0.00 | 0.00 | 0.00 | 30 | |
| 20260505210903 | 65 | 285 | 6.1 | 13.0 | 0.00 | 0.00 | 0.00 | 30 | |
| 20260505210004 | 64 | 230 | 4.3 | 9.6 | 0.00 | 0.00 | 0.00 | 30 | |
| 20260505205403 | 65 | 272 | 5.2 | 11.3 | 0.00 | 0.00 | 0.00 | 30 | |
| 20260505204503 | 65 | 247 | 3.5 | 11.3 | 0.00 | 0.00 | 0.00 | 28 | |
| 20260505203813 | 63 | 237 | 1.7 | 5.2 | 0.00 | 0.00 | 0.00 | 30 | |
| 20260505202703 | 63 | 265 | 4.3 | 9.6 | 0.00 | 0.00 | 0.00 | 31 | |
| 20260505201803 | 64 | 277 | 3.5 | 8.7 | 0.00 | 0.00 | 0.00 | 32 | |
| 20260505200904 | 63 | 231 | 4.3 | 10.4 | 0.00 | 0.00 | 0.00 | 29 | |
| 20260505200003 | 63 | 256 | 3.5 | 14.8 | 0.00 | 0.00 | 0.00 | 32 | |
| 20260505195403 | 63 | 256 | 4.3 | 9.6 | 0.00 | 0.00 | 0.00 | 29 | |
| 20260505194503 | 62 | 268 | 5.2 | 9.6 | 0.00 | 0.00 | 0.00 | 30 | |
| 20260505193603 | 62 | 277 | 4.3 | 9.6 | 0.00 | 0.00 | 0.00 | 30 | |
| 20260505192703 | 61 | 319 | 4.3 | 8.7 | 0.00 | 0.00 | 0.00 | 33 | |
| 20260505191803 | 62 | 302 | 3.5 | 7.8 | 0.00 | 0.00 | 0.00 | 33 | |
| 20260505190903 | 61 | 305 | 2.6 | 7.8 | 0.00 | 0.00 | 0.00 | 32 | |
| 20260505190004 | 61 | 325 | 1.7 | 3.5 | 0.00 | 0.00 | 0.00 | 32 | |
| 20260505185403 | 60 | 277 | 2.6 | 7.8 | 0.00 | 0.00 | 0.00 | 34 | |
| 20260505184503 | 59 | 300 | 4.3 | 9.6 | 0.00 | 0.00 | 0.00 | 32 | |
| 20260505183814 | 60 | 303 | 3.5 | 9.6 | 0.00 | 0.00 | 0.00 | 31 | |
| 20260505182913 | 60 | 218 | 4.3 | 10.4 | 0.00 | 0.00 | 0.00 | 31 | |
| 20260505181803 | 59 | 298 | 4.3 | 7.8 | 0.00 | 0.00 | 0.00 | 33 | |
| 20260505180903 | 59 | 278 | 5.2 | 10.4 | 0.00 | 0.00 | 0.00 | 33 | |
| 20260505180003 | 59 | 267 | 4.3 | 10.4 | 0.00 | 0.00 | 0.00 | 33 | |
| 20260505175403 | 59 | 271 | 4.3 | 10.4 | 0.00 | 0.00 | 0.00 | 35 | |
| 20260505174503 | 59 | 272 | 4.3 | 8.7 | 0.00 | 0.00 | 0.00 | 35 | |
| 20260505173814 | 59 | 264 | 4.3 | 12.2 | 0.00 | 0.00 | 0.00 | 36 | |
| 20260505172703 | 58 | 277 | 6.1 | 11.3 | 0.00 | 0.00 | 0.00 | 35 | |
| 20260505171803 | 58 | 269 | 7.0 | 11.3 | 0.00 | 0.00 | 0.00 | 35 | |
| 20260505170903 | 57 | 264 | 5.2 | 12.2 | 0.00 | 0.00 | 0.00 | 38 | |
| 20260505170003 | 57 | 228 | 6.1 | 11.3 | 0.00 | 0.00 | 0.00 | 35 | |
| 20260505165403 | 56 | 229 | 5.2 | 9.6 | 0.00 | 0.00 | 0.00 | 37 | |
| 20260505164503 | 55 | 222 | 6.1 | 13.0 | 0.00 | 0.00 | 0.00 | 39 | |
| 20260505163813 | 55 | 220 | 5.2 | 12.2 | 0.00 | 0.00 | 0.00 | 39 | |
| 20260505162703 | 55 | 214 | 5.2 | 9.6 | 0.00 | 0.00 | 0.00 | 39 | |
| 20260505161803 | 55 | 215 | 5.2 | 13.9 | 0.00 | 0.00 | 0.00 | 40 | |
| 20260505160903 | 54 | 226 | 6.1 | 13.0 | 0.00 | 0.00 | 0.00 | 41 | |
| 20260505152703 | 52 | 206 | 5.2 | 10.4 | 0.00 | 0.00 | 0.00 | 42 | |
| 20260505151803 | 51 | 217 | 4.3 | 9.6 | 0.00 | 0.00 | 0.00 | 43 | |
| 20260505150903 | 50 | 195 | 3.5 | 7.0 | 0.00 | 0.00 | 0.00 | 44 | |
| 20260505150214 | 50 | 214 | 3.5 | 7.8 | 0.00 | 0.00 | 0.00 | 44 | |
| 20260505140214 | 42 | 236 | 0.9 | 2.6 | 0.00 | 0.00 | 0.00 | 64 |